#timestamp,LO_Frequency,Hit,StdDev 
1673575215.8,286047002.1,N
1673575235.6,286047001.9,N
1673575255.5,286047002.6,N
1673575275.3,286047002.6,N
1673575295.1,286047001.6,N
1673575315.9,286047004.1,Y
1673575335.7,286047002.7,P
1673575355.5,286047002.6,P
1673575375.4,286047001.4,N
1673575395.2,286047002.5,Y
1673575415.0,286047002.3,P
1673575415.9,286047002.3,P
1673575435.8,286047001.0,P
1673575455.6,286046998.5,N
1673575475.4,286047000.5,N
1673575495.3,286047002.2,N
1673575515.1,286047002.6,N
1673575535.8,286047000.3,N
1673575555.7,286046999.9,N
1673575575.5,286047000.0,N
1673575595.3,286047001.9,N
1673575615.2,286047000.5,N
1673575635.9,286047002.3,N
1673575655.7,286047002.1,N
1673575675.6,286047003.8,Y
1673575695.4,286047001.9,P
1673575715.2,286046998.1,P
1673575735.1,286046998.4,N
1673575736.0,286046998.4,N
1673575755.8,286046997.2,N
1673575775.6,286046998.9,N
1673575795.5,286047000.8,N
1673575815.3,286046999.8,N
1673575835.1,286046997.0,N
1673575855.9,286047001.2,N
1673575875.7,286047002.8,N
1673575895.5,286047002.1,N
1673575915.4,286047002.2,N
1673575935.2,286047003.6,N
1673575955.0,286047005.9,N
1673575955.9,286047005.9,N
1673575975.8,286047005.5,N
1673575995.6,286047005.0,N
1673576015.4,286047005.8,N
1673576035.3,286047005.0,N
1673576055.1,286047005.6,N
1673576056.0,286047005.6,N
1673576075.8,286047003.1,N
1673576095.7,286047005.1,N
1673576115.5,286047007.6,N
1673576135.3,286047004.5,N
1673576155.2,286047004.8,N
1673576175.9,286047007.1,N
1673576195.7,286047007.6,N
1673576215.6,286047006.5,N
1673576235.4,286047006.6,N
1673576255.2,286047008.5,N
1673576275.1,286047008.7,N
1673576276.0,286047008.7,N
1673576295.8,286047008.7,N
1673576315.6,286047006.7,N
1673576335.5,286047007.0,N
1673576355.3,286047006.5,N
1673576375.1,286047009.0,Y
1673576395.9,286047004.3,P
1673576415.7,286047006.2,P
1673576435.5,286047004.7,P
1673576455.4,286047005.1,Y
1673576475.2,286046999.5,P
1673576495.0,286046997.4,N
1673576495.9,286046997.4,N
1673576515.8,286047000.6,N
1673576535.6,286047001.0,N
1673576555.4,286047000.9,N
1673576575.3,286047000.9,N
1673576595.1,286047002.7,N
1673576596.0,286047002.7,N
1673576615.8,286047001.8,N
1673576635.7,286047002.0,N
1673576655.5,286047004.3,N
1673576675.3,286047002.2,N
1673576695.1,286046999.7,N
1673576715.9,286047000.4,N
1673576735.7,286047000.3,N
1673576755.5,286047002.3,N
1673576775.4,286047002.8,N
1673576795.2,286047001.9,N
1673576815.0,286047001.4,N
1673576815.9,286047001.4,N
1673576835.8,286047001.3,N
1673576855.6,286047000.1,N
1673576875.4,286047004.7,N
1673576895.3,286047001.5,N
1673576915.1,286047002.0,N
1673576935.8,286047001.3,N
1673576955.7,286047005.9,Y
1673576975.5,286047002.0,P
1673576995.3,286047001.7,P
1673577015.2,286047003.8,P
1673577035.0,286047003.1,Y
1673577035.9,286047003.1,P
1673577055.7,286047002.8,P
1673577075.6,286047001.9,P
1673577095.4,286047002.9,Y
1673577115.2,286046998.3,P
1673577135.1,286046996.9,N
1673577136.0,286046996.9,N
1673577155.8,286046999.6,N
1673577175.6,286047000.7,N
1673577195.5,286047001.2,N
1673577215.3,286047001.5,N
1673577235.1,286047000.5,N
1673577255.9,286046998.4,N
1673577275.7,286046998.3,N
1673577295.5,286046999.1,N
1673577315.4,286046997.7,N
1673577335.2,286046997.9,N
1673577355.0,286046997.4,N
1673577355.9,286046997.4,N
1673577375.8,286046996.7,N
1673577395.6,286046997.8,N
1673577415.4,286046997.4,N
1673577435.3,286046996.6,N
1673577455.1,286046996.5,N
1673577475.8,286046998.9,N
1673577495.7,286046999.3,N
1673577515.5,286046996.6,N
1673577535.3,286046997.4,N
1673577555.2,286046997.5,N
1673577575.0,286046995.8,N
1673577575.9,286046995.8,N
1673577595.7,286046997.8,N
1673577615.6,286046999.5,N
1673577635.4,286046999.2,N
1673577655.2,286046997.1,N
1673577675.1,286046997.4,N
1673577676.0,286046997.4,N
1673577695.8,286046998.0,N
1673577715.6,286046996.1,N
1673577735.5,286046996.2,N
1673577755.3,286046996.0,Y
1673577775.1,286046997.4,P
1673577795.9,286046997.3,P
1673577815.7,286046998.0,P
1673577835.5,286046997.5,Y
1673577855.4,286046999.3,P
1673577875.2,286046999.4,N
1673577895.0,286047000.8,N
1673577895.9,286047000.8,N
1673577915.8,286046998.6,N
1673577935.6,286046998.8,N
1673577955.4,286046998.6,N
1673577975.3,286046999.2,N
1673577995.1,286046996.5,Y
1673578015.8,286046998.7,P
1673578035.7,286046999.3,N
1673578055.5,286046998.8,P
1673578075.3,286046999.1,Y
1673578095.2,286047001.1,P
1673578115.0,286047000.9,N
1673578115.9,286047000.9,N
1673578135.7,286046998.6,N
1673578155.6,286046998.3,N
1673578175.4,286046998.2,N
1673578195.2,286047000.8,N
1673578215.1,286046996.6,N
1673578216.0,286046996.6,N
1673578235.8,286046996.5,N
1673578255.6,286046997.5,N
1673578275.5,286046995.8,N
1673578295.3,286046996.1,N
1673578315.1,286046997.9,N
1673578335.9,286046997.5,N
1673578355.7,286046997.2,N
1673578375.5,286046998.0,N
1673578395.4,286046997.8,N
1673578415.2,286046999.1,N
1673578435.0,286046999.3,N
1673578435.9,286046999.3,N
1673578455.8,286046997.1,N
1673578475.6,286046996.6,N
1673578495.4,286046998.9,N
1673578515.3,286046997.5,N
1673578535.1,286046997.1,N
1673578555.8,286046995.0,Y
1673578575.7,286046996.9,P
1673578595.5,286046999.1,N
1673578615.3,286046997.4,N
1673578635.2,286046996.6,Y
1673578655.0,286047000.8,P
1673578655.9,286047000.8,N
1673578675.7,286047000.7,N
1673578695.6,286046998.9,N
1673578715.4,286046999.2,N
1673578735.2,286046999.5,N
1673578755.1,286046998.7,N
1673578756.0,286046998.7,N
1673578775.8,286046998.3,N
1673578795.6,286046998.8,N
